SCP
0 0 0 0 0 0 0 0 0 0 0 0 0 0 0 0 0 0 0 0 0 0 0 0 0 0 0 0 0 0 0 0 0 0 0 0 0 0 0 0 0 0 0
0 0 0 0 0 0 0 0 0 0 0 0 0 0 0 0 0 0 0 0 0 0 0 0 0 0 0 0 0 0 0 0 0 0 0 0 0 0 0 0 0 0 0
0 0 0 0 0 0 0 0 0 0 0 0 0 0 0 0 0 0 0 0 0 0 0 0 0 0 0 0 0 0 0 0 0 0 0 0 0 0 0 0 0 0 0
0 0 0 0 0 0 0 0 0 0 0 0 0 0 0 0 0 0 0 0 0 0 0 0 0 0 0 0 0 0 0 0 0 0 0 0 0 0 0 0 0 0 0
0 0 0 0 0 0 0 0 0 0 0 0 0 0 0 0 0 0 0 0 0 0 0 0 0 0 0 0 0 0 0 0 0 0 0 0 0 0 0 0 0 0 0
0 0 0 0 0 0 0 0 0 0 0 0 0 0 0 0 0 0 0 0 0 0 0 0 0 0 0 0 0 0 0 0 0 0 0 0 0 0 0 0 0 0 0
0 0 0 0 0 0 0 0 0 0 0 0 0 0 0 0 0 0 0 0 0 0 0 0 0 0 0 0 0 0 0 0 0 0 0 0 0 0 0 0 0 0 0
0 0 0 0 0 0 0 0 0 0 0 0 0 0 0 0 0 0 0 0 0 0 0 0 0 0 0 0 0 0 0 0 0 0 0 0 0 0 0 0 0 0 0
0 0 0 0 0 0 0 0 0 0 0 0 0 0 0 0 0 0 0 0 0 0 0 0 0 0 0 0 0 0 0 0 0 0 0 0 0 0 0 0 0 0 0
0 0 0 0 0 0 0 0 0 0 0 0 0 0 0 0 0 0 0 0 0 0 0 0 0 0 0 0 0 0 0 0 0 0 0 0 0 0 0 0 0 0 0
0 0 0 0 0 0 0 0 0 0 0 0 0 0 0 0 0 0 0 0 0 0 0 0 0 0 0 0 0 0 0 0 0 0 0 0 0 0 0 0 0 0 0
0 0 0 0 0 0 0 0 0 0 0 0 0 0 0 0 0 0 0 0 0 0 0 0 0 0 0 0 0 0 0 0 0 0 0 0 0 0 0 0 0 0 0
0 0 0 0 0 0 0 0 0 0 0 0 0 0 0 0 0 0 0 0 0 0 0 0 0 0 0 0 0 0 0 0 0 0 0 0 0 0 0 0 0 0 0
0 0 0 0 0 0 0 0 0 0 0 0 0 0 0 0 0 0 0 0 0 0 0 0 0 0 0 0 0 0 0 0 0 0 0 0 0 0 0 0 0 0 0
0 0 0 0 0 0 0 0 0 0 0 0 0 0 0 0 0 0 0 0 0 0 0 0 0 0 0 0 0 0 0 0 0 0 0 0 0 0 0 0 0 0 0
0 0 0 0 0 0 0 0 0 0 0 0 0 0 0 0 0 0 0 0 0 0 0 0 0 0 0 0 0 0 0 0 0 0 0 0 0 0 0 0 0 0 0
0 0 0 0 0 0 0 0 0 0 0 0 0 0 0 0 0 0 0 0 0 0 0 0 0 0 0 0 0 0 0 0 0 0 0 0 0 0 0 0 0 0 0
0 0 0 0 0 0 0 0 0 0 0 0 0 0 0 0 0 0 0 0 0 0 0 0 0 0 0 0 0 0 0 0 0 0 0 0 0 0 0 0 0 0 0
0 0 0 0 0 0 0 0 0 0 0 0 0 0 0 0 0 0 0 0 0 0 0 0 0 0 0 0 0 0 0 0 0 0 0 0 0 0 0 0 0 0 0
0 0 0 0 0 0 0 0 0 0 0 0 0 0 0 0 0 0 0 0 0 0 0 0 0 0 0 0 0 0 0 0 0 0 0 0 0 0 0 0 0 0 0
0 0 0 0 0 0 0 0 0 0 0 0 0 0 0 0 0 0 0 0 0 0 0 0 0 0 0 0 0 0 0 0 0 0 0 0 0 0 0 0 0 0 0
0 0 0 0 0 0 0 0 0 0 0 0 0 0 0 0 0 0 0 0 0 0 0 0 0 0 0 0 0 0 0 0 0 0 0 0 0 0 0 0 0 0 0
0 0 0 0 0 0 0 0 0 0 0 0 0 0 0 0 0 0 0 0 0 0 0 0 0 0 0 0 0 0 0 0 0 0 0 0 0 0 0 0 0 0 0
0 0 0 0 0 0 0 0 0 0 0 0 0 0 0 0 0 0 0 0 0 0 0 0 0 0 0 0 0 0 0 0 0 0 0 0 0 0 0 -0 -0 -0 -0
0 0 0 0 0 0 0 0 0 0 0 0 0 0 0 0 0 0 0 0 0 0 0 0 0 0 0 0 0 0 0 0 0 0 0 0 0 0 -0 -0 -0 -0 -0
0 0 0 0 0 0 0 0 0 0 0 0 0 0 0 0 0 0 0 0 0 0 0 0 0 0 0 0 0 0 0 0 0 0 0 0 0 0 -0 -0 -0 -0 -0
Wind_Speed
15 15 14 14 13 12 12 14 13 13 13 15 15 14 14 13 12 10 9 9 9 7 6 6 5 5 4 3 4 5 6 7 16 16 7 7 8 11 11 9 11 14 15
15 14 14 12 12 14 15 14 14 15 15 15 15 14 14 13 12 12 11 11 10 9 8 7 6 5 5 5 5 7 7 7 11 21 17 12 13 13 14 14 14 14 14
13 13 13 13 15 17 16 14 15 15 15 15 15 16 15 14 13 12 11 10 9 9 8 8 6 6 7 6 7 7 7 8 9 15 20 15 14 13 16 16 16 13 15
14 15 16 18 19 17 14 14 16 16 17 17 16 15 14 14 13 12 12 10 9 8 8 7 7 8 8 8 7 8 8 9 10 13 16 16 15 15 14 16 17 11 13
14 16 19 17 14 12 14 15 16 16 17 17 15 14 13 12 12 13 12 12 11 9 8 8 8 9 12 10 8 8 8 8 10 12 15 16 16 15 15 15 19 17 15
16 17 14 12 13 14 15 15 16 16 15 15 16 16 15 12 19 23 15 11 11 10 9 9 8 9 11 16 17 17 15 13 12 13 14 17 20 18 17 17 19 20 22
14 13 12 13 14 15 15 16 17 16 15 15 15 14 14 15 23 23 21 11 10 9 9 7 6 6 8 8 12 16 17 20 23 18 19 21 22 19 21 23 21 22 24
11 11 12 13 14 13 15 16 15 13 14 14 13 13 12 14 23 22 22 11 8 8 7 6 7 7 8 9 10 11 13 15 18 17 18 20 20 21 21 23 25 25 26
10 11 12 14 14 15 16 16 12 13 12 12 13 13 13 14 22 22 19 7 7 7 6 7 8 8 12 15 12 12 14 14 19 25 27 28 32 34 28 19 18 19 23
7 7 9 12 15 16 16 14 11 12 12 12 12 12 12 11 19 22 19 7 7 6 6 7 9 11 14 16 11 11 14 14 13 14 18 21 21 22 27 21 17 18 21
1 3 6 9 11 12 12 11 13 12 12 11 12 11 11 12 18 22 21 8 8 7 6 6 6 12 14 16 16 12 16 16 12 12 13 14 14 14 14 15 16 16 19
2 4 6 8 8 9 11 12 12 13 14 12 11 11 9 11 14 19 23 18 14 8 6 5 6 11 14 16 13 14 19 16 7 9 11 12 12 13 13 15 18 19 21
4 6 6 7 9 11 13 14 13 13 12 12 12 12 11 10 13 21 22 21 18 9 6 9 8 10 11 9 11 15 11 7 7 9 11 12 13 15 16 16 17 18 20
8 9 9 10 11 11 11 12 13 14 14 14 14 13 12 12 11 11 9 10 12 8 4 3 3 7 7 7 8 8 6 7 9 10 12 13 14 14 15 15 16 15 17
11 10 10 11 12 13 13 13 15 13 14 14 13 13 15 14 16 20 14 9 7 6 6 2 1 1 2 3 4 5 6 7 9 9 11 13 14 15 15 15 15 16 17
11 11 11 10 11 11 11 10 19 16 20 23 20 17 13 17 26 26 23 20 18 15 8 3 2 3 3 4 5 6 7 8 9 10 11 12 14 15 17 16 15 16 17
15 13 11 11 12 12 12 12 11 15 20 23 23 23 20 24 28 26 23 20 17 13 5 3 3 3 3 4 5 6 8 9 10 10 11 13 14 15 17 17 17 17 17
16 14 13 12 12 12 12 12 11 12 13 12 17 24 26 27 26 25 23 17 9 5 3 3 3 3 4 4 5 6 8 9 9 10 11 13 14 15 17 17 17 19 19
15 12 11 11 11 11 11 11 11 13 13 13 12 18 23 25 24 23 18 7 7 5 4 3 4 4 4 4 5 6 8 9 10 11 12 13 14 15 16 17 18 22 21
14 16 13 11 11 11 12 12 13 13 14 14 15 14 14 15 12 10 5 5 5 4 4 4 4 4 4 4 5 6 7 9 10 10 11 13 13 14 17 20 19 19 18
12 11 15 12 12 12 12 13 13 13 13 13 12 15 21 13 12 10 8 6 6 5 4 4 3 4 4 4 5 6 8 9 9 10 12 13 14 15 16 17 19 19 19
11 9 10 11 11 11 11 11 12 12 13 13 11 15 22 10 9 9 7 6 4 3 3 3 3 4 4 5 5 6 8 9 10 10 12 14 14 15 16 17 18 19 20
9 10 10 10 10 13 12 11 11 12 13 13 13 12 11 9 9 8 7 5 4 3 3 3 4 5 5 5 6 7 8 10 10 12 14 15 14 15 16 18 22 23 22
8 10 11 11 11 11 11 11 11 12 13 13 12 11 10 9 9 8 6 5 3 3 3 3 4 7 10 8 6 7 9 11 12 13 16 14 15 15 16 18 20 23 22
9 10 10 10 11 11 11 11 11 12 12 11 11 10 9 9 8 7 5 4 3 2 3 4 4 6 9 11 11 10 13 18 18 15 11 10 13 15 17 19 19 22 22
10 10 9 9 9 10 10 11 11 11 11 10 9 9 9 8 7 6 5 4 2 2 3 3 5 8 10 10 12 14 16 18 20 16 8 9 12 14 17 16 21 20 22
Wind_Direction
200 201 200 199 196 188 194 196 187 179 176 177 179 178 177 177 176 177 179 177 180 176 174 181 194 194 214 222 231 241 249 255 275 287 283 294 295 296 297 287 288 287 285
203 200 203 196 186 193 200 194 183 180 178 177 176 178 179 178 177 180 182 182 182 179 178 182 194 202 219 226 235 245 250 252 270 288 297 301 301 303 298 293 291 286 283
200 199 199 195 194 201 201 189 181 178 176 175 176 179 179 178 179 183 181 181 182 178 175 184 193 206 226 228 234 244 251 259 265 279 290 298 299 300 299 293 285 279 278
199 200 203 203 204 203 193 183 180 177 175 177 180 179 177 176 178 180 181 180 177 177 180 189 200 212 225 231 238 244 251 260 267 274 284 293 296 296 293 295 295 283 280
199 204 209 207 200 188 182 181 178 178 178 176 174 174 173 174 178 179 180 178 176 178 186 200 211 217 230 236 240 242 248 257 264 271 279 288 289 293 293 295 294 296 285
202 209 206 192 186 185 182 177 176 177 174 172 174 173 175 180 187 186 179 177 177 181 190 203 214 220 236 252 258 260 258 261 265 270 276 279 284 288 292 291 293 294 293
203 204 192 185 185 183 176 174 177 176 171 173 173 174 177 183 188 188 185 175 179 185 192 199 215 228 233 249 263 270 271 270 269 270 273 274 282 287 289 288 284 283 283
200 196 186 182 181 174 173 178 176 171 173 173 172 172 170 184 189 189 188 178 178 184 192 204 225 240 245 254 258 262 263 264 267 268 269 274 276 279 278 280 283 284 281
201 196 186 180 175 173 178 178 171 169 170 170 167 168 169 183 191 189 183 163 176 185 195 213 232 246 257 266 269 271 273 274 278 277 277 281 284 287 289 289 287 286 285
220 202 182 176 176 179 179 172 167 167 167 165 167 170 170 175 189 188 180 165 175 184 199 220 234 244 259 268 269 273 277 282 285 287 286 287 288 287 286 279 279 279 280
245 174 174 179 180 176 169 165 161 161 159 164 164 168 170 173 189 188 185 170 176 182 199 214 229 251 265 274 280 278 282 291 292 294 293 289 285 281 278 274 273 275 278
177 177 178 175 169 164 161 162 163 161 161 166 166 168 173 174 187 192 190 184 182 181 196 211 232 257 273 284 289 287 294 303 300 293 287 285 285 284 283 283 280 277 274
189 193 186 177 173 170 169 168 168 170 172 176 177 178 177 176 186 191 190 189 191 180 188 213 239 271 290 294 293 298 306 300 289 286 286 287 288 289 291 289 285 280 276
212 202 188 184 186 181 179 177 180 184 184 183 185 184 177 174 178 179 178 180 188 188 179 192 275 289 283 284 291 300 294 283 283 284 286 289 292 293 291 292 293 292 289
224 211 200 195 192 192 193 194 193 197 195 188 189 182 176 178 182 176 166 167 167 170 141 121 143 237 263 275 283 286 287 286 285 284 289 293 294 294 293 294 293 293 292
230 216 204 198 198 197 195 199 209 201 205 204 198 190 188 178 170 171 171 174 176 166 142 149 183 218 249 273 287 292 290 286 287 289 290 291 293 295 296 296 296 294 293
234 222 207 200 196 196 195 191 192 199 204 207 198 188 177 168 166 169 169 166 162 152 136 161 194 219 244 263 275 282 286 288 289 288 289 291 292 294 296 300 302 299 295
245 229 213 204 197 193 192 191 186 181 182 186 185 176 170 165 164 164 160 145 140 127 145 174 204 223 239 256 271 281 285 289 288 289 291 291 291 294 300 303 303 301 299
250 233 214 203 195 190 186 184 183 180 172 164 158 165 165 161 160 159 149 137 150 157 168 191 210 227 242 256 268 275 278 282 285 288 289 290 292 299 304 305 303 301 300
250 231 208 194 187 184 182 181 180 176 169 166 164 158 155 152 150 143 127 137 144 154 174 202 220 232 245 256 266 273 279 281 286 287 290 293 296 304 308 307 306 306 303
244 223 197 186 184 181 180 180 176 173 168 167 160 162 161 152 148 146 148 152 157 165 185 210 230 243 247 252 260 269 276 281 284 288 293 295 303 309 309 308 307 306 305
228 207 188 180 174 174 174 171 168 166 163 158 152 163 154 139 142 146 150 155 158 169 189 213 240 246 246 249 256 269 278 281 285 291 295 301 309 312 312 311 311 311 311
202 183 170 165 161 160 161 162 161 160 159 158 160 155 144 145 144 145 148 150 159 182 203 217 244 260 255 248 245 251 264 273 281 289 294 302 313 315 314 314 314 315 317
163 156 151 149 150 153 154 155 155 155 157 157 152 143 143 142 140 142 143 148 165 197 220 229 243 260 270 274 265 257 258 266 276 283 288 301 312 314 315 316 316 317 319
123 130 135 139 142 144 146 147 148 150 150 148 142 139 136 133 134 138 143 153 173 216 246 252 252 262 270 276 278 277 279 286 289 289 293 306 312 314 317 317 319 322 324
105 113 119 125 131 136 140 142 143 143 142 140 138 135 133 133 136 141 146 155 178 233 264 267 265 272 277 282 282 286 292 299 303 308 313 313 315 317 322 321 323 325 327